sat.trackr.live / text

‹ back to catalog

STARLINK-36584

NORAD 67547 · 2026-014R

PAYLOAD ACTIVE UNKNOWN

§ Identity

Operator
Country
US
Launch date
2026-01-22
Launch site
AFWTR
Launch vehicle
Mass (kg)
RCS (m²)

Purposes: comms

External: N2YO · Heavens-Above · Gunter

§ Orbital elements

Epoch: 2026-09-19T22:11:07.917216Z

Period
93.91 min
Inclination
97.2858°
Eccentricity
0.0001923
Mean motion
15.33452968 rev/d
Perigee alt
464.2 km
Apogee alt
466.8 km
Semi-major
6,843.7 km
B*
6.0115e-4
RAAN
148.3550°
Arg perigee
95.7692°
Mean anomaly
264.3770°
Rev number
3,855

§ Raw data

STARLINK-365841 67547U 26014R   26262.92439719  .00019388  00000+0  60115-3 0  99982 67547  97.2858 148.3550 0001923  95.7692 264.3770 15.33452968 38555

JSON: /api/v1/satellites/67547 · /tle

For live sub-satellite position, see the globe view (requires WebGL).

§ Visibility from observer

Set your observer location to see the next 7 days of passes ≥ 10°. The values pass through the URL so the page stays shareable.

No JS? Fill the form by hand. The geolocation button needs JavaScript.